This is the latest recevied weather packets stored in our database for station/object DG9BJA-13. If no packets are shown the sender has not sent any weather packets the latest 1 day(s).
| Time | Temp. | Humidity | Pressure | Rain* | Wind** | Luminosity | Snow |
|---|---|---|---|---|---|---|---|
| 1777970175 | 7.78° C | 94% | 1011.5 hPa | 0 mm | 2.24 m/s, 23° | 93 W/m² | - |
| 1777969577 | 7.78° C | 94% | 1011.5 hPa | 0 mm | 1.79 m/s, 0° | 127 W/m² | - |
| 1777968977 | 7.78° C | 95% | 1011.5 hPa | 0 mm | 2.68 m/s, 0° | 121 W/m² | - |
| 1777968377 | 8.33° C | 95% | 1011.5 hPa | 0 mm | 2.24 m/s, 0° | 153 W/m² | - |
| 1777967777 | 7.78° C | 95% | 1011.5 hPa | 0 mm | 2.24 m/s, 23° | 174 W/m² | - |
| 1777967177 | 7.78° C | 95% | 1011.5 hPa | 0 mm | 1.79 m/s, 0° | 113 W/m² | - |
| 1777966577 | 7.78° C | 95% | 1011.6 hPa | 0 mm | 3.13 m/s, 23° | 83 W/m² | - |
| 1777965977 | 7.78° C | 95% | 1011.8 hPa | 0 mm | 2.68 m/s, 23° | 53 W/m² | - |
| 1777965377 | 7.78° C | 95% | 1011.8 hPa | 0 mm | 1.79 m/s, 0° | 26 W/m² | - |
| 1777964777 | 7.78° C | 95% | 1011.6 hPa | 0 mm | 1.34 m/s, 0° | 23 W/m² | - |
| 1777964177 | 7.78° C | 95% | 1011.5 hPa | 0 mm | 0.89 m/s, 23° | 37 W/m² | - |
| 1777963577 | 7.78° C | 95% | 1011.5 hPa | 0 mm | 2.24 m/s, 0° | 63 W/m² | - |
| 1777962977 | 7.78° C | 95% | 1011.5 hPa | 0 mm | 2.68 m/s, 23° | 54 W/m² | - |
| 1777962377 | 7.78° C | 95% | 1011.5 hPa | 0 mm | 2.24 m/s, 0° | 32 W/m² | - |
| 1777961777 | 7.78° C | 95% | 1011.5 hPa | 0 mm | 2.24 m/s, 23° | 32 W/m² | - |
| 1777961176 | 7.78° C | 95% | 1011.5 hPa | 0 mm | 2.68 m/s, 23° | 32 W/m² | - |
| 1777960577 | 7.78° C | 95% | 1011.5 hPa | 0 mm | 2.24 m/s, 0° | 30 W/m² | - |
| 1777959977 | 7.78° C | 95% | 1011.5 hPa | 0.25 mm | 2.24 m/s, 23° | 25 W/m² | - |
| 1777959377 | 7.78° C | 95% | 1011.6 hPa | 0.25 mm | 4.02 m/s, 23° | 23 W/m² | - |
| 1777958776 | 7.78° C | 95% | 1011.5 hPa | 0.25 mm | 2.68 m/s, 23° | 21 W/m² | - |
| 1777958176 | 7.78° C | 95% | 1011.5 hPa | 0.51 mm | 2.68 m/s, 23° | 18 W/m² | - |
| 1777957577 | 7.78° C | 95% | 1011.5 hPa | 0.51 mm | 2.24 m/s, 23° | 16 W/m² | - |
| 1777956976 | 7.78° C | 95% | 1011.5 hPa | 0.51 mm | 1.79 m/s, 23° | 11 W/m² | - |
| 1777956376 | 7.78° C | 95% | 1011.5 hPa | 0.51 mm | 1.79 m/s, 0° | 9 W/m² | - |
| 1777955776 | 7.78° C | 95% | 1011.5 hPa | 0.51 mm | 2.24 m/s, 0° | 7 W/m² | - |
* Rain latest hour (hover to see other rain measurements)
** Current wind speed in m/s (hover to see current wind gust speed)